Regional Weather Roundup
Issued by NWS Burlington, VT

Home | Current Version | Previous Version | Text Only | Print | Product List | Glossary On
Versions: 1 2 3 4 5 6 7 8 9 10 11 12 13 14 15 16 17 18 19 20 21 22 23 24 25 26 27 28 29 30 31 32 33 34 35 36 37 38 39 40 41 42 43 44 45 46 47 48 49 50
000
ASUS41 KBTV 232010
RWRBTV
VERMONT REGIONAL WEATHER ROUNDUP
NATIONAL WEATHER SERVICE BURLINGTON VT
400 PM EDT WED JUL 23 2014

NOTE: "FAIR" INDICATES FEW OR NO CLOUDS BELOW 12,000 FEET WITH NO
SIGNIFICANT WEATHER AND/OR OBSTRUCTIONS TO VISIBILITY.

* THESE REPORTS ARE NOT UNDER NWS QUALITY CONTROL AND/OR DO NOT
  REPORT WEATHER SUCH AS PRECIPITATION AND FOG.

VTZ001>019-232100-
_____VERMONT_____


CITY           SKY/WX    TMP DP  RH WIND       PRES   REMARKS
BURLINGTON     TSTM      73  71  93 CALM      29.75S FOG
MONTPELIER     TSTM      68  67  96 VRB7G24   29.82R FOG
MORRISVILLE    CLOUDY    69  67  93 CALM      29.79S
ST. JOHNSBURY*   N/A     68  66  93 MISG      29.75R
LYNDONVILLE*     N/A    N/A N/A N/A MISG        N/A
MIDDLEBURY*    TSTM      75  69  82 N13G25    29.73R
RUTLAND*       MOCLDY    88  70  55 SW15      29.74F HX  92
SPRINGFIELD    MOCLDY    90  68  48 SW9       29.75F HX  94
HIGHGATE*      CLOUDY    74  71  91 CALM      29.74S
NEWPORT*       FAIR     N/A N/A N/A CALM      29.78S
BENNINGTON     PTCLDY    87  70  56 SW9       29.77F HX  92
SUTTON*          N/A     66 N/A N/A MISG        N/A

_____LAKE CHAMPLAIN_____


CITY           SKY/WX    TMP DP  RH WIND       PRES   REMARKS
COLCHESTER RF*   N/A     75  72  88 N7          N/A
DIAMOND ISL*     N/A     75  70  83 NW17        N/A

$$

NYZ007-026>031-035-052-083-232100-
_____NORTHERN NEW YORK_____


CITY           SKY/WX    TMP DP  RH WIND       PRES   REMARKS
PLATTSBURGH    LGT RAIN  75  68  78 W5        29.75R
SARANAC LAKE   CLOUDY    69  66  90 VRB6      29.82F
MASSENA        CLOUDY    75  63  66 NW15G23   29.80R
OGDENSBURG*    CLOUDY    73  63  68 N9        29.81S
POTSDAM*       CLOUDY    72  70  94 NW8       29.81S
WATERTOWN      MOCLDY    76  63  64 N3        29.82R
FT DRUM        MOCLDY    70  66  88 N5        29.83R
ALBANY         PTCLDY    90  72  55 S14G22    29.74F HX  97
GLENS FALLS    PTCLDY    90  68  48 SW15G21   29.71F HX  94

$$
NHZ002-005-011-232100-
_____NEW HAMPSHIRE_____


CITY           SKY/WX    TMP DP  RH WIND       PRES   REMARKS
LEBANON        MOCLDY    89  67  47 S12       29.72F HX  92
KEENE          PTCLDY    90  66  45 SW16      29.77F HX  92
MT WASHINGTON  FOG       59  59 100 W36         N/A  VSB 1/2
PLYMOUTH       MOCLDY    89  65  45 SW7       29.73F HX  90
WHITEFIELD     CLOUDY    76  63  64 NW13G25   29.78R

$$

_____REGIONAL QUEBEC LOCATIONS_____


CITY           SKY/WX    TMP DP  RH WIND       PRES   REMARKS
MONTREAL       PTCLDY    79  63  57 W14G21    29.74R
QUEBEC CITY    MOCLDY    77  63  61 NW15      29.68S
SHERBROOKE     MOCLDY    70  68  94 S3        29.75F

_____REGIONAL ONTARIO LOCATIONS_____


CITY           SKY/WX    TMP DP  RH WIND       PRES   REMARKS
OTTAWA         MOCLDY    75  59  57 NW17G26   29.84R

______KEY______
VSB  - VISIBILITY IN MILES
WCI  - WIND CHILL INDEX
HX   - HEAT INDEX
$$
NNNN


USA.gov is the U.S. government's official web portal to all federal, state and local government web resources and services.